Skip Page Navigation
NASA JPL Caltech
NASA Logo - Jet Propulsion Laboratory + View the NASA Portal
+ Near-Earth Object (NEO) Program
Search JPL
JPL Home Earth Solar System Stars & Galaxies Technology
JPL Solar System Dynamics
BODIES ORBITS EPHEMERIDES TOOLS PHYSICAL DATA DISCOVERY FAQ SITE MAP
JPL Small-Body Database Browser
Search: [ help ]  
24710 (1991 PX14)
Classification: Main-belt Asteroid          SPK-ID: 2024710
Ephemeris | Orbit Diagram | Orbital Elements | Physical Parameters | Discovery Circumstances | Close-Approach Data ]

[ show orbit diagram ]
Orbital Elements at Epoch 2457400.5 (2016-Jan-13.0) TDB
Reference: JPL 13 (heliocentric ecliptic J2000)
 Element Value Uncertainty (1-sigma)   Units 
e .1494124352192876 6.6027e-08  
a 2.366218321436397 1.3322e-08 au
q 2.01267587977009 1.5483e-07 au
i 5.44912601487897 5.3686e-06 deg
node 260.4379513130181 7.4835e-05 deg
peri 70.38596055429281 7.7597e-05 deg
M 252.9031209808544 2.2394e-05 deg
tp 2457796.007715600097
(2017-Feb-11.50771560)
8.3799e-05 JED
period 1329.476441517788
3.64
1.1228e-05
3.074e-08
d
yr
n .2707832863807714 2.2869e-09 deg/d
Q 2.719760763102705 1.5313e-08 au
  Orbit Determination Parameters
   # obs. used (total)      736  
   data-arc span      23286 days (63.75 yr)  
   first obs. used      1951-09-09  
   last obs. used      2015-06-11  
   planetary ephem.      DE431  
   SB-pert. ephem.      SB431-BIG16  
   condition code      0  
   fit RMS      .51413  
   data source      ORB  
   producer      Otto Matic  
   solution date      2015-Jul-06 12:35:31  

Additional Information
 Earth MOID = 1.00759 au 
 Jupiter MOID = 2.60864 au 
 T_jup = 3.527 
[ show covariance matrix ]

Ephemeris | Orbit Diagram | Orbital Elements | Physical Parameters | Discovery Circumstances | Close-Approach Data ]

Physical Parameter Table
Parameter Symbol Value Units Sigma Reference Notes
absolute magnitude H 14.8 mag n/a MPO333046  

24710 (1991 PX14)          Discovered 1991-Aug-06 by Holt, H. E. at Palomar
Reference: 20010606/Numbers.arcLast Updated: 2004-04-19

[ show close-approach data ]
Alternate Designations
 1991 PX14 = 1977 XL1 
Ephemeris | Orbit Diagram | Orbital Elements | Physical Parameters | Discovery Circumstances | Close-Approach Data ]
ABOUT SSD CREDITS/AWARDS PRIVACY/COPYRIGHT GLOSSARY LINKS
FirstGov 2016-Feb-12 18:13 UT
(server date/time)  
NASA Home Page
Site Manager:   Ryan S. Park
Webmaster  Alan B. Chamberlin